This is the latest recevied weather packets stored in our database for station/object PI1GDA-1. If no packets are shown the sender has not sent any weather packets the latest 1 day(s).
| Time | Temp. | Humidity | Pressure | Rain* | Wind** | Luminosity | Snow |
|---|---|---|---|---|---|---|---|
| 1778087291 | 14.44° C | 61% | 1010.9 hPa | 0 mm | - | - | - |
| 1778086690 | 14.44° C | 62% | 1010.8 hPa | 0 mm | - | - | - |
| 1778086090 | 14.44° C | 62% | 1010.9 hPa | 0 mm | - | - | - |
| 1778084283 | 14.44° C | 60% | 1010.8 hPa | 0 mm | - | - | - |
| 1778080073 | 14.44° C | 59% | 1010.8 hPa | 0 mm | - | - | - |
| 1778079472 | 14.44° C | 59% | 1010.7 hPa | 0 mm | - | - | - |
| 1778078270 | 14.44° C | 58% | 1010.8 hPa | 0 mm | - | - | - |
| 1778076468 | 15.56° C | 55% | 1010.8 hPa | 0 mm | - | - | - |
| 1778075266 | 15.56° C | 55% | 1010.7 hPa | 0 mm | - | - | - |
| 1778074666 | 15.56° C | 56% | 1010.6 hPa | 0 mm | - | - | - |
| 1778071662 | 15.56° C | 60% | 1010.2 hPa | 0 mm | - | - | - |
| 1778069861 | 16.11° C | 59% | 1010.2 hPa | 0 mm | - | - | - |
| 1778068059 | 15.56° C | 62% | 1010.2 hPa | 0 mm | - | - | - |
| 1778066256 | 15.56° C | 62% | 1010.2 hPa | 0 mm | - | - | - |
| 1778065654 | 15.56° C | 62% | 1010.2 hPa | 0 mm | - | - | - |
| 1778063250 | 14.44° C | 69% | 1010.2 hPa | 0 mm | - | - | - |
| 1778062049 | 14.44° C | 69% | 1010 hPa | 0 mm | - | - | - |
| 1778060848 | 15° C | 66% | 1009.9 hPa | 0 mm | - | - | - |
| 1778060248 | 15.56° C | 64% | 1009.8 hPa | 0 mm | - | - | - |
| 1778059647 | 15.56° C | 66% | 1009.8 hPa | 0 mm | - | - | - |
| 1778057842 | 14.44° C | 72% | 1009.7 hPa | 0 mm | - | - | - |
| 1778056640 | 13.33° C | 78% | 1009.6 hPa | 0 mm | - | - | - |
| 1778056039 | 13.33° C | 79% | 1009.5 hPa | 0 mm | - | - | - |
| 1778054835 | 12.78° C | 80% | 1009.5 hPa | 0 mm | - | - | - |
| 1778054234 | 12.78° C | 80% | 1009.4 hPa | 0 mm | - | - | - |
* Rain latest hour (hover to see other rain measurements)
** Current wind speed in m/s (hover to see current wind gust speed)